Location: Newark
(7.0858°N, 171.3717°E)
Time: 11:03:03
(UTC+00:00)

A-11 Canister half - Pass Details

Date: 10 December 2020
Orbit: 1517 x 1683 km, 47.2° (Epoch: 19 January)

Event Time Altitude Azimuth Distance (km) Brightness Sun altitude
Rises 17:50:40 0° 213° (SSW) 4,654 11.4 -11.2°
Reaches altitude 10° 17:53:43 10° 210° (SSW) 3,674 10.9 -10.5°
Maximum altitude 18:02:52 66° 129° (SE) 1,645 9.5 -8.4°
Drops below altitude 10° 18:12:12 10° 49° (NE) 3,750 11.4 -6.3°
Sets 18:15:20 0° 46° (NE) 4,756 11.9 -5.6°
